Total_Precipitation_Accumulation
0.08 0.24 0.39 0.47 0.79 0.44 0.06 0.03 0.03 0.02 0.02 0.02 0.01 0.01 0.02 0.06 0.19 0.44 0.21 0.09 0.06 0.06 0.17 0.22 0.32 0.32 0.27 0.23 0.31 0.41 0.52 0.65 0.65 0.58 0.49 0.31 0.26 0.21 0.22 0.22 0.24 0.25 0.21 0.25 0.29 0.34 0.33 0.29 0.26
0.19 0.39 0.53 0.93 0.83 0.15 0.05 0.05 0.06 0.05 0.04 0.04 0.01 0.01 0.01 0.02 0.03 0.10 0.18 0.19 0.07 0.04 0.12 0.20 0.27 0.32 0.29 0.32 0.45 0.51 0.56 0.62 0.58 0.48 0.35 0.27 0.23 0.22 0.22 0.28 0.30 0.25 0.21 0.24 0.29 0.39 0.35 0.28 0.26
0.23 0.37 0.63 0.93 0.32 0.07 0.08 0.09 0.10 0.08 0.05 0.03 0.01 0.01 0.01 0.04 0.06 0.11 0.15 0.15 0.08 0.06 0.13 0.22 0.29 0.32 0.32 0.37 0.47 0.54 0.54 0.51 0.49 0.44 0.32 0.25 0.22 0.20 0.23 0.27 0.30 0.26 0.19 0.17 0.23 0.28 0.26 0.25 0.20
0.28 0.54 0.76 0.53 0.13 0.09 0.09 0.12 0.11 0.06 0.03 0.02 0.02 0.01 0.03 0.06 0.09 0.12 0.16 0.16 0.15 0.15 0.19 0.22 0.35 0.36 0.35 0.47 0.52 0.54 0.47 0.41 0.44 0.43 0.35 0.27 0.19 0.19 0.25 0.24 0.21 0.16 0.12 0.13 0.19 0.23 0.22 0.21 0.15
0.33 0.73 0.83 0.38 0.18 0.17 0.16 0.11 0.06 0.04 0.02 0.03 0.03 0.03 0.09 0.10 0.14 0.16 0.22 0.24 0.26 0.32 0.38 0.32 0.40 0.37 0.35 0.47 0.55 0.54 0.56 0.53 0.52 0.49 0.41 0.36 0.25 0.22 0.23 0.18 0.12 0.07 0.08 0.13 0.26 0.30 0.19 0.16 0.14
0.55 0.95 1.18 0.62 0.32 0.25 0.21 0.15 0.07 0.05 0.04 0.04 0.05 0.09 0.15 0.16 0.19 0.23 0.30 0.37 0.40 0.39 0.38 0.39 0.48 0.45 0.43 0.50 0.53 0.48 0.52 0.63 0.64 0.55 0.51 0.66 0.45 0.29 0.19 0.13 0.06 0.03 0.06 0.10 0.19 0.24 0.17 0.15 0.19
0.66 1.10 1.05 0.59 0.35 0.38 0.27 0.15 0.09 0.08 0.08 0.09 0.08 0.14 0.18 0.22 0.21 0.25 0.31 0.37 0.39 0.37 0.37 0.38 0.45 0.50 0.50 0.57 0.62 0.59 0.60 0.68 0.73 0.60 0.58 0.65 0.41 0.21 0.14 0.10 0.06 0.03 0.03 0.06 0.09 0.15 0.17 0.17 0.22
0.30 0.62 0.72 0.56 0.42 0.38 0.24 0.11 0.07 0.06 0.07 0.09 0.10 0.15 0.32 0.36 0.27 0.32 0.37 0.41 0.42 0.42 0.42 0.38 0.42 0.54 0.66 0.67 0.64 0.71 0.76 0.72 0.78 0.69 0.64 0.54 0.28 0.16 0.12 0.08 0.07 0.06 0.05 0.06 0.09 0.13 0.14 0.15 0.18
0.29 0.51 0.80 0.78 0.48 0.32 0.22 0.14 0.08 0.07 0.07 0.08 0.08 0.11 0.19 0.27 0.30 0.38 0.44 0.43 0.46 0.47 0.49 0.46 0.42 0.46 0.60 0.71 0.64 0.83 0.91 0.85 0.75 0.71 0.69 0.54 0.30 0.21 0.17 0.11 0.11 0.10 0.11 0.10 0.11 0.13 0.10 0.08 0.09
0.41 0.62 0.85 0.63 0.40 0.23 0.18 0.14 0.10 0.09 0.12 0.09 0.07 0.11 0.15 0.22 0.30 0.39 0.42 0.45 0.47 0.48 0.44 0.45 0.43 0.42 0.43 0.52 0.78 1.12 0.96 0.84 0.65 0.66 0.62 0.58 0.51 0.43 0.28 0.24 0.26 0.24 0.19 0.15 0.14 0.13 0.06 0.03 0.04
0.39 0.44 0.49 0.51 0.30 0.16 0.11 0.11 0.11 0.09 0.11 0.11 0.10 0.13 0.16 0.22 0.27 0.29 0.33 0.37 0.42 0.44 0.44 0.42 0.39 0.38 0.41 0.55 0.69 0.90 0.97 0.93 0.79 0.67 0.65 0.70 0.62 0.45 0.31 0.25 0.26 0.28 0.26 0.17 0.13 0.09 0.03 0.02 0.05
0.36 0.27 0.23 0.26 0.17 0.14 0.12 0.11 0.10 0.09 0.11 0.10 0.12 0.15 0.21 0.25 0.26 0.25 0.30 0.38 0.43 0.46 0.49 0.47 0.40 0.40 0.42 0.47 0.48 0.57 0.64 0.68 0.65 0.58 0.57 0.68 0.61 0.49 0.38 0.35 0.29 0.26 0.24 0.22 0.18 0.12 0.07 0.05 0.05
0.27 0.18 0.16 0.17 0.16 0.15 0.13 0.12 0.09 0.10 0.11 0.10 0.13 0.20 0.26 0.28 0.27 0.28 0.30 0.33 0.38 0.42 0.48 0.49 0.46 0.42 0.42 0.43 0.43 0.42 0.52 0.56 0.58 0.60 0.54 0.56 0.57 0.53 0.48 0.40 0.38 0.37 0.33 0.32 0.24 0.16 0.12 0.09 0.06
0.20 0.16 0.15 0.14 0.14 0.17 0.14 0.11 0.11 0.13 0.12 0.10 0.12 0.17 0.20 0.25 0.29 0.30 0.32 0.33 0.33 0.36 0.44 0.46 0.47 0.49 0.47 0.44 0.44 0.46 0.53 0.58 0.56 0.51 0.48 0.51 0.50 0.50 0.55 0.56 0.53 0.49 0.45 0.50 0.43 0.24 0.17 0.13 0.08
0.17 0.17 0.16 0.15 0.14 0.17 0.15 0.13 0.14 0.16 0.14 0.12 0.12 0.13 0.15 0.19 0.23 0.29 0.33 0.33 0.34 0.38 0.44 0.46 0.49 0.55 0.55 0.53 0.55 0.50 0.57 0.59 0.58 0.59 0.58 0.61 0.60 0.60 0.66 0.70 0.68 0.64 0.56 0.56 0.73 0.57 0.25 0.16 0.12
0.24 0.25 0.27 0.19 0.18 0.19 0.18 0.16 0.16 0.19 0.17 0.17 0.16 0.15 0.15 0.17 0.20 0.21 0.25 0.30 0.33 0.41 0.50 0.56 0.50 0.54 0.59 0.62 0.67 0.68 0.70 0.71 0.67 0.67 0.69 0.71 0.73 0.75 0.78 0.79 0.70 0.74 0.74 0.70 0.80 0.81 0.43 0.20 0.14
0.24 0.29 0.28 0.21 0.18 0.17 0.18 0.17 0.17 0.20 0.17 0.15 0.17 0.16 0.15 0.15 0.16 0.16 0.17 0.21 0.29 0.40 0.53 0.60 0.58 0.58 0.67 0.77 0.85 0.87 0.84 0.84 0.82 0.84 0.79 0.82 0.85 0.90 0.93 0.91 0.86 0.84 0.82 0.86 0.81 0.90 0.78 0.46 0.27
0.32 0.25 0.19 0.16 0.16 0.15 0.16 0.16 0.16 0.18 0.16 0.14 0.14 0.14 0.13 0.12 0.15 0.15 0.13 0.14 0.20 0.32 0.44 0.59 0.72 0.83 0.90 0.97 1.06 1.11 1.04 0.98 1.02 1.06 1.03 1.05 1.10 1.06 1.09 1.10 1.10 1.13 1.07 1.00 0.89 0.96 0.95 0.68 0.49
0.25 0.21 0.17 0.12 0.12 0.10 0.10 0.11 0.13 0.16 0.16 0.14 0.12 0.12 0.11 0.09 0.09 0.09 0.09 0.14 0.20 0.29 0.37 0.54 0.88 1.30 1.48 1.39 1.37 1.46 1.58 1.57 1.48 1.46 1.44 1.49 1.48 1.48 1.50 1.46 1.41 1.33 1.25 1.27 1.20 1.31 1.55 1.05 0.73
0.24 0.26 0.22 0.16 0.11 0.09 0.07 0.07 0.08 0.10 0.12 0.13 0.12 0.13 0.13 0.10 0.08 0.06 0.08 0.11 0.17 0.32 0.47 0.59 0.85 1.29 1.49 1.60 1.72 1.94 2.14 2.05 1.93 1.90 1.86 1.93 1.93 2.08 2.06 2.02 1.96 1.81 1.76 1.75 1.64 1.59 1.78 1.36 1.01
0.28 0.29 0.25 0.20 0.12 0.09 0.07 0.06 0.07 0.09 0.09 0.09 0.11 0.14 0.14 0.12 0.11 0.11 0.10 0.14 0.18 0.27 0.39 0.53 0.71 1.00 1.32 1.58 1.87 2.19 2.43 2.41 2.30 2.13 2.11 2.15 2.19 2.33 2.46 2.44 2.45 2.25 2.07 2.04 1.97 1.85 1.87 1.82 1.45
0.21 0.15 0.11 0.09 0.10 0.09 0.07 0.10 0.10 0.12 0.13 0.12 0.13 0.13 0.15 0.15 0.14 0.16 0.16 0.16 0.18 0.23 0.30 0.43 0.61 0.86 1.11 1.35 1.78 2.23 2.55 2.66 2.57 2.46 2.40 2.35 2.37 2.39 2.56 2.60 2.68 2.50 2.35 2.27 2.19 1.96 1.95 2.14 1.95
0.10 0.06 0.06 0.07 0.08 0.07 0.06 0.09 0.12 0.13 0.16 0.16 0.16 0.16 0.16 0.16 0.17 0.20 0.20 0.22 0.24 0.22 0.26 0.38 0.54 0.77 1.02 1.24 1.61 2.04 2.33 2.56 2.72 2.53 2.40 2.41 2.43 2.41 2.50 2.65 2.73 2.59 2.45 2.37 2.47 2.30 2.19 2.03 1.89
0.05 0.06 0.05 0.05 0.07 0.07 0.05 0.11 0.19 0.18 0.17 0.15 0.14 0.15 0.17 0.19 0.24 0.27 0.35 0.39 0.39 0.33 0.36 0.45 0.54 0.67 0.84 0.98 1.22 1.46 1.81 2.09 2.44 2.42 2.34 2.46 2.43 2.27 2.18 2.36 2.54 2.49 2.50 2.49 2.54 2.56 2.48 2.38 2.27
0.03 0.08 0.12 0.12 0.13 0.11 0.08 0.18 0.29 0.25 0.19 0.18 0.18 0.18 0.20 0.22 0.26 0.34 0.47 0.51 0.53 0.46 0.43 0.45 0.55 0.60 0.66 0.77 0.90 1.06 1.33 1.51 1.86 2.18 2.16 2.07 2.09 2.06 2.05 2.06 2.11 2.14 2.26 2.42 2.64 2.57 2.42 2.35 2.36
0.04 0.09 0.17 0.19 0.19 0.19 0.19 0.34 0.42 0.31 0.23 0.21 0.19 0.20 0.23 0.27 0.34 0.50 0.65 0.68 0.68 0.60 0.53 0.52 0.60 0.63 0.65 0.70 0.72 0.82 0.98 1.10 1.25 1.45 1.58 1.60 1.62 1.78 1.77 1.82 1.90 1.95 2.05 2.16 2.29 2.31 2.28 2.21 2.14
0.07 0.10 0.13 0.20 0.18 0.20 0.30 0.46 0.43 0.27 0.25 0.27 0.27 0.28 0.37 0.47 0.55 0.67 0.81 0.83 0.75 0.69 0.61 0.60 0.64 0.73 0.73 0.72 0.73 0.83 0.88 0.91 1.01 1.03 1.18 1.36 1.37 1.39 1.42 1.46 1.59 1.73 1.85 1.93 2.08 2.13 2.12 2.11 2.08
0.06 0.10 0.17 0.28 0.33 0.31 0.33 0.45 0.47 0.37 0.37 0.37 0.42 0.44 0.55 0.66 0.74 0.82 0.95 0.97 0.83 0.71 0.61 0.59 0.61 0.73 0.92 1.03 0.98 0.93 0.99 1.06 1.28 1.30 1.13 1.11 1.26 1.30 1.28 1.26 1.34 1.53 1.69 1.77 1.83 1.91 2.00 1.99 1.99
0.14 0.21 0.27 0.35 0.38 0.49 0.58 0.63 0.58 0.57 0.58 0.59 0.62 0.65 0.74 0.86 0.87 0.84 0.91 0.98 0.87 0.68 0.61 0.56 0.56 0.67 0.82 0.86 0.93 0.91 0.95 1.05 1.33 1.54 1.47 1.27 1.24 1.24 1.20 1.11 1.16 1.29 1.41 1.52 1.61 1.68 1.72 1.73 1.83
0.23 0.34 0.50 0.69 0.66 0.62 0.75 0.79 0.64 0.58 0.62 0.64 0.64 0.63 0.67 0.79 0.80 0.81 0.83 0.80 0.70 0.56 0.49 0.47 0.48 0.59 0.71 0.70 0.76 0.82 0.83 0.92 1.04 1.16 1.17 1.09 0.98 0.93 0.97 1.02 1.01 1.08 1.21 1.28 1.30 1.37 1.44 1.49 1.57